When you browse on this site, cookies collect data to enhance your experience and personalize the content and advertising you see.
Visit our Privacy Policy to learn more. By continuing to use the site, you agree to this use of cookies and data.
  • In Czech Republic
  • List of Countries
  • For 7 days
  • Water Temperature
  • Satellite Maps
  • Weather Map
  • Weather Widgets
  • user-avatar
    Login

    Hourly Weather Khulna

    Today, 23 May, Thursday

    Time Temperature Precipitation Wind Pressure Humidity
    00:00 +31°C° 0 mm 3 mps 753 mmHg 77%
    01:00 +31°C° 0 mm 2 mps 753 mmHg 77%
    02:00 +31°C° 0 mm 2 mps 753 mmHg 77%
    03:00 +31°C° 0 mm 2 mps 753 mmHg 77%
    04:00 +31°C° 0 mm 3 mps 753 mmHg 77%
    05:00 +32°C° 0 mm 4 mps 753 mmHg 77%
    06:00 +31°C° 0 mm 3 mps 754 mmHg 76%
    07:00 +33°C° 0 mm 4 mps 754 mmHg 69%
    08:00 +35°C° 0 mm 4 mps 754 mmHg 63%
    09:00 +37°C° 0 mm 5 mps 754 mmHg 57%
    10:00 +39°C° 0 mm 5 mps 754 mmHg 50%
    11:00 +41°C° 0 mm 5 mps 753 mmHg 44%
    12:00 +41°C° 0 mm 4 mps 754 mmHg 39%
    13:00 +42°C° 0 mm 4 mps 753 mmHg 38%
    14:00 +42°C° 0 mm 5 mps 753 mmHg 36%
    15:00 +44°C° 0 mm 6 mps 752 mmHg 34%
    16:00 +41°C° 0 mm 6 mps 751 mmHg 40%
    17:00 +40°C° 0 mm 6 mps 751 mmHg 45%
    18:00 +36°C° 0 mm 3 mps 751 mmHg 57%
    19:00 +35°C° 0.4 mm 4 mps 752 mmHg 60%
    20:00 +35°C° 0.4 mm 5 mps 752 mmHg 64%
    21:00 +34°C° 0.4 mm 6 mps 753 mmHg 68%
    22:00 +33°C° 0 mm 5 mps 753 mmHg 70%
    23:00 +33°C° 0 mm 5 mps 753 mmHg 71%

    Tomorrow, 24 May, Friday

    Time Temperature Precipitation Wind Pressure Humidity
    00:00 +33°C° 0 mm 4 mps 753 mmHg 73%
    01:00 +33°C° 0 mm 3 mps 753 mmHg 74%
    02:00 +31°C° 0 mm 3 mps 752 mmHg 74%
    03:00 +31°C° 0 mm 2 mps 752 mmHg 75%
    04:00 +31°C° 0 mm 3 mps 752 mmHg 75%
    05:00 +31°C° 0 mm 3 mps 753 mmHg 76%
    06:00 +32°C° 0 mm 4 mps 753 mmHg 77%
    07:00 +34°C° 0 mm 4 mps 753 mmHg 70%
    08:00 +35°C° 0 mm 5 mps 753 mmHg 64%
    09:00 +38°C° 0 mm 6 mps 753 mmHg 57%
    10:00 +39°C° 0 mm 6 mps 753 mmHg 51%
    11:00 +41°C° 0 mm 6 mps 753 mmHg 45%
    12:00 +44°C° 0 mm 7 mps 752 mmHg 38%
    13:00 +44°C° 0 mm 7 mps 752 mmHg 39%
    14:00 +44°C° 0 mm 7 mps 751 mmHg 40%
    15:00 +44°C° 0 mm 7 mps 750 mmHg 40%
    16:00 +41°C° 0 mm 7 mps 750 mmHg 45%
    17:00 +40°C° 0 mm 7 mps 749 mmHg 51%
    18:00 +38°C° 0 mm 7 mps 749 mmHg 56%
    19:00 +36°C° 0 mm 7 mps 749 mmHg 62%
    20:00 +35°C° 0 mm 7 mps 750 mmHg 67%
    21:00 +33°C° 0 mm 6 mps 750 mmHg 72%
    22:00 +33°C° 0 mm 6 mps 750 mmHg 72%
    23:00 +33°C° 0 mm 6 mps 751 mmHg 72%

    Day after tomorrow, 25 May, Saturday

    Time Temperature Precipitation Wind Pressure Humidity
    00:00 +33°C° 0 mm 6 mps 751 mmHg 72%
    01:00 +33°C° 0 mm 6 mps 751 mmHg 73%
    02:00 +33°C° 0 mm 5 mps 750 mmHg 73%
    03:00 +33°C° 0 mm 5 mps 750 mmHg 74%
    04:00 +33°C° 0 mm 5 mps 750 mmHg 75%
    05:00 +33°C° 0 mm 5 mps 750 mmHg 75%
    06:00 +33°C° 0 mm 6 mps 750 mmHg 75%
    07:00 +33°C° 0 mm 6 mps 750 mmHg 74%
    08:00 +34°C° 0 mm 6 mps 751 mmHg 72%
    09:00 +34°C° 0 mm 7 mps 751 mmHg 70%
    10:00 +36°C° 0 mm 7 mps 751 mmHg 65%
    11:00 +38°C° 0 mm 7 mps 750 mmHg 61%
    12:00 +39°C° 0 mm 7 mps 750 mmHg 56%
    13:00 +40°C° 0 mm 7 mps 750 mmHg 55%
    14:00 +40°C° 0 mm 7 mps 749 mmHg 54%
    15:00 +41°C° 0 mm 7 mps 748 mmHg 52%
    16:00 +39°C° 3.1 mm 7 mps 748 mmHg 59%
    17:00 +36°C° 3.1 mm 7 mps 747 mmHg 65%
    18:00 +35°C° 3.1 mm 7 mps 746 mmHg 72%
    19:00 +34°C° 3.3 mm 6 mps 747 mmHg 70%
    20:00 +34°C° 3.3 mm 5 mps 748 mmHg 69%
    21:00 +33°C° 3.3 mm 5 mps 749 mmHg 68%
    22:00 +33°C° 0 mm 5 mps 750 mmHg 73%
    23:00 +33°C° 0 mm 5 mps 750 mmHg 77%

    26 May, Sunday

    Time Temperature Precipitation Wind Pressure Humidity
    00:00 +32°C° 0 mm 6 mps 750 mmHg 82%
    01:00 +32°C° 0 mm 5 mps 749 mmHg 83%
    02:00 +32°C° 0 mm 5 mps 749 mmHg 84%
    03:00 +32°C° 0 mm 5 mps 749 mmHg 85%
    04:00 +32°C° 0 mm 5 mps 749 mmHg 85%
    05:00 +32°C° 0 mm 5 mps 749 mmHg 85%
    06:00 +32°C° 0 mm 5 mps 749 mmHg 85%
    07:00 +33°C° 0 mm 5 mps 750 mmHg 79%
    08:00 +35°C° 0 mm 5 mps 750 mmHg 73%
    09:00 +36°C° 0 mm 5 mps 751 mmHg 67%
    10:00 +37°C° 0 mm 5 mps 751 mmHg 63%
    11:00 +39°C° 0 mm 5 mps 751 mmHg 59%
    12:00 +40°C° 0 mm 5 mps 751 mmHg 56%
    13:00 +41°C° 0 mm 5 mps 750 mmHg 54%
    14:00 +41°C° 0 mm 5 mps 749 mmHg 52%
    15:00 +42°C° 0 mm 5 mps 749 mmHg 50%
    16:00 +40°C° 0 mm 6 mps 748 mmHg 55%
    17:00 +39°C° 0 mm 7 mps 748 mmHg 60%
    18:00 +37°C° 0 mm 8 mps 748 mmHg 64%
    19:00 +35°C° 0 mm 6 mps 749 mmHg 68%
    20:00 +34°C° 0 mm 5 mps 750 mmHg 73%
    21:00 +33°C° 0 mm 4 mps 750 mmHg 77%
    22:00 +33°C° 0 mm 4 mps 750 mmHg 78%
    23:00 +33°C° 0 mm 4 mps 750 mmHg 79%

    27 May, Monday

    Time Temperature Precipitation Wind Pressure Humidity
    00:00 +33°C° 0 mm 5 mps 750 mmHg 80%
    01:00 +33°C° 0 mm 4 mps 750 mmHg 80%
    02:00 +32°C° 0 mm 4 mps 750 mmHg 81%
    03:00 +32°C° 0 mm 4 mps 750 mmHg 81%
    04:00 +32°C° 0 mm 4 mps 750 mmHg 80%
    05:00 +33°C° 0 mm 4 mps 750 mmHg 79%
    06:00 +33°C° 0 mm 3 mps 750 mmHg 78%
    07:00 +34°C° 0 mm 4 mps 751 mmHg 72%
    08:00 +36°C° 0 mm 5 mps 751 mmHg 65%
    09:00 +37°C° 0 mm 5 mps 751 mmHg 59%
    10:00 +40°C° 0 mm 5 mps 751 mmHg 53%
    11:00 +42°C° 0 mm 5 mps 751 mmHg 47%
    12:00 +45°C° 0 mm 6 mps 751 mmHg 41%
    13:00 +45°C° 0 mm 6 mps 750 mmHg 41%
    14:00 +45°C° 0 mm 6 mps 750 mmHg 41%
    15:00 +45°C° 0 mm 6 mps 749 mmHg 41%
    16:00 +42°C° 0 mm 6 mps 749 mmHg 46%
    17:00 +41°C° 0 mm 6 mps 749 mmHg 52%
    18:00 +39°C° 0 mm 6 mps 749 mmHg 57%
    19:00 +38°C° 0 mm 6 mps 749 mmHg 63%
    20:00 +35°C° 0 mm 6 mps 750 mmHg 69%
    21:00 +34°C° 0 mm 6 mps 750 mmHg 75%
    22:00 +34°C° 0 mm 6 mps 750 mmHg 76%
    23:00 +33°C° 0 mm 5 mps 750 mmHg 78%

    28 May, Tuesday

    Time Temperature Precipitation Wind Pressure Humidity
    00:00 +33°C° 0 mm 5 mps 750 mmHg 80%
    01:00 +33°C° 0 mm 5 mps 750 mmHg 79%
    02:00 +33°C° 0 mm 5 mps 750 mmHg 79%
    03:00 +33°C° 0 mm 5 mps 750 mmHg 78%
    04:00 +33°C° 0 mm 4 mps 750 mmHg 77%
    05:00 +33°C° 0 mm 4 mps 750 mmHg 76%
    06:00 +33°C° 0 mm 4 mps 751 mmHg 75%
    07:00 +34°C° 0 mm 4 mps 751 mmHg 70%
    08:00 +35°C° 0 mm 4 mps 752 mmHg 66%
    09:00 +36°C° 0 mm 4 mps 752 mmHg 62%
    10:00 +40°C° 0 mm 4 mps 752 mmHg 53%
    11:00 +42°C° 0 mm 5 mps 751 mmHg 44%
    12:00 +45°C° 0 mm 5 mps 751 mmHg 36%
    13:00 +45°C° 0 mm 6 mps 750 mmHg 37%
    14:00 +45°C° 0 mm 6 mps 750 mmHg 39%
    15:00 +44°C° 0 mm 7 mps 749 mmHg 40%
    16:00 +43°C° 0 mm 7 mps 749 mmHg 47%
    17:00 +40°C° 0 mm 7 mps 749 mmHg 53%
    18:00 +38°C° 0 mm 7 mps 748 mmHg 59%
    19:00 +36°C° 0 mm 6 mps 749 mmHg 64%
    20:00 +35°C° 0 mm 5 mps 750 mmHg 68%
    21:00 +34°C° 0 mm 5 mps 751 mmHg 72%
    22:00 +34°C° 0 mm 5 mps 751 mmHg 73%
    23:00 +34°C° 0 mm 5 mps 750 mmHg 74%
    Show more